This is the latest recevied weather packets stored in our database for station/object R1ZAAG-14. If no packets are shown the sender has not sent any weather packets the latest 10 day(s).
| Time | Temp. | Humidity | Pressure | Rain* | Wind** | Luminosity | Snow |
|---|---|---|---|---|---|---|---|
| 1777630269 | 10° C | 84% | 1006.6 hPa | - | - | - | - |
| 1777630264 | 10° C | 84% | 1006.6 hPa | - | - | - | - |
| 1777629368 | 9.44° C | 91% | 1006.7 hPa | - | - | - | - |
| 1777629363 | 9.44° C | 91% | 1006.7 hPa | - | - | - | - |
| 1777628462 | 8.89° C | 97% | 1006.8 hPa | - | - | - | - |
| 1777627568 | 8.89° C | 93% | 1007.2 hPa | - | - | - | - |
| 1777627561 | 8.89° C | 93% | 1007.2 hPa | - | - | - | - |
| 1777626665 | 8.89° C | 92% | 1007.4 hPa | - | - | - | - |
| 1777626661 | 8.89° C | 92% | 1007.4 hPa | - | - | - | - |
| 1777625765 | 9.44° C | 91% | 1007.4 hPa | - | - | - | - |
| 1777625760 | 9.44° C | 91% | 1007.4 hPa | - | - | - | - |
| 1777624863 | 8.89° C | 94% | 1007.6 hPa | - | - | - | - |
| 1777624858 | 8.89° C | 94% | 1007.6 hPa | - | - | - | - |
| 1777623962 | 8.89° C | 94% | 1007.8 hPa | - | - | - | - |
| 1777623957 | 8.89° C | 94% | 1007.8 hPa | - | - | - | - |
| 1777623062 | 7.78° C | 100% | 1007.8 hPa | - | - | - | - |
| 1777623056 | 7.78° C | 100% | 1007.8 hPa | - | - | - | - |
| 1777622162 | 7.78° C | 100% | 1007.8 hPa | - | - | - | - |
| 1777622156 | 7.78° C | 100% | 1007.8 hPa | - | - | - | - |
| 1777621262 | 7.78° C | 100% | 1008 hPa | - | - | - | - |
| 1777621252 | 7.78° C | 100% | 1008 hPa | - | - | - | - |
| 1777619451 | 6.67° C | 100% | 1008.6 hPa | - | - | - | - |
| 1777618550 | 6.67° C | 100% | 1008.8 hPa | - | - | - | - |
| 1777617650 | 7.22° C | 100% | 1008.9 hPa | - | - | - | - |
| 1777616748 | 7.22° C | 100% | 1009.1 hPa | - | - | - | - |
* Rain since midnight (hover to see other rain measurements)
** Current wind speed in m/s (hover to see current wind gust speed)